#timestamp,LO_Frequency,Hit 
1500357615.3,286048232.9,N
1500357635.2,286048232.2,N
1500357655.9,286048232.7,N
1500357675.7,286048231.8,N
1500357695.6,286048232.3,N
1500357715.4,286048232.9,N
1500357735.2,286048232.0,N
1500357755.1,286048232.3,N
1500357756.0,286048232.3,N
1500357775.8,286048234.8,N
1500357795.7,286048233.3,N
1500357815.5,286048233.3,N
1500357835.3,286048234.4,N
1500357855.2,286048234.0,N
1500357875.0,286048232.3,N
1500357875.9,286048232.3,N
1500357895.8,286048234.5,N
1500357915.6,286048236.0,N
1500357935.4,286048236.2,N
1500357955.3,286048236.3,N
1500357975.1,286048236.4,N
1500357995.9,286048234.0,N
1500358015.7,286048235.8,N
1500358035.5,286048235.0,N
1500358055.4,286048235.5,N
1500358075.2,286048236.1,N
1500358095.1,286048233.6,N
1500358096.0,286048233.6,N
1500358115.8,286048234.2,N
1500358135.6,286048234.6,N
1500358155.5,286048233.8,N
1500358175.3,286048234.7,N
1500358195.1,286048233.8,N
1500358215.9,286048235.9,N
1500358235.7,286048233.6,N
1500358255.6,286048234.8,N
1500358275.4,286048234.8,N
1500358295.2,286048233.4,N
1500358315.1,286048234.5,N
1500358316.0,286048234.5,N
1500358335.8,286048233.7,N
1500358355.7,286048235.2,N
1500358375.5,286048235.1,N
1500358395.3,286048237.9,N
1500358415.2,286048237.7,N
1500358435.0,286048236.6,N
1500358435.9,286048236.6,N
1500358455.7,286048235.5,N
1500358475.6,286048237.4,N
1500358495.4,286048235.6,N
1500358515.3,286048235.8,N
1500358535.1,286048236.2,N
1500358555.8,286048235.5,N
1500358575.7,286048235.0,N
1500358595.5,286048235.5,N
1500358615.4,286048235.6,N
1500358635.2,286048235.1,N
1500358655.0,286048235.4,N
1500358655.9,286048235.4,N
1500358675.8,286048235.6,N
1500358695.6,286048235.8,N
1500358715.4,286048235.5,N
1500358735.3,286048233.3,N
1500358755.1,286048235.4,N
1500358775.9,286048236.1,N
1500358795.7,286048235.3,N
1500358815.5,286048237.5,N
1500358835.4,286048234.9,N
1500358855.2,286048235.8,N
1500358875.1,286048235.1,N
1500358876.0,286048235.1,N
1500358895.8,286048235.2,N
1500358915.6,286048234.9,N
1500358935.5,286048237.2,N
1500358955.3,286048237.8,N
1500358975.1,286048236.8,N
1500358995.9,286048236.6,N
1500359015.7,286048238.0,N
1500359035.6,286048235.6,N
1500359055.4,286048237.6,N
1500359075.2,286048237.6,N
1500359095.1,286048235.7,N
1500359096.0,286048235.7,N
1500359115.8,286048235.1,N
1500359135.6,286048235.3,N
1500359155.5,286048237.8,N
1500359175.3,286048234.9,N
1500359195.2,286048237.2,N
1500359215.9,286048234.9,N
1500359235.7,286048237.6,N
1500359255.6,286048236.9,N
1500359275.4,286048236.6,N
1500359295.2,286048235.2,N
1500359315.1,286048234.9,N
1500359316.0,286048234.9,N
1500359335.8,286048235.2,N
1500359355.7,286048237.4,N
1500359375.5,286048236.8,N
1500359395.3,286048236.6,N
1500359415.2,286048237.9,N
1500359435.0,286048237.6,N
1500359435.9,286048237.6,N
1500359455.8,286048237.8,N
1500359475.6,286048235.2,N
1500359495.4,286048235.6,N
1500359515.3,286048237.4,N
1500359535.1,286048237.8,N
1500359555.8,286048238.0,N
1500359575.7,286048237.3,N
1500359595.5,286048235.5,N
1500359615.4,286048235.2,N
1500359635.2,286048235.0,N
1500359655.0,286048234.9,N
1500359655.9,286048234.9,N
1500359675.8,286048235.3,N
1500359695.6,286048235.1,N
1500359715.4,286048239.2,N
1500359735.3,286048236.6,N
1500359755.1,286048237.2,N
1500359775.9,286048237.1,N
1500359795.7,286048237.2,N
1500359815.5,286048237.8,N
1500359835.4,286048237.9,N
1500359855.2,286048235.5,N
1500359875.0,286048235.4,N
1500359876.0,286048235.4,N
1500359895.8,286048235.2,N
1500359915.6,286048235.7,N
1500359935.5,286048235.4,N
1500359955.3,286048236.1,N
1500359975.1,286048235.5,N
1500359995.9,286048235.2,N
1500360015.7,286048235.7,N
1500360035.6,286048237.8,N
1500360055.4,286048235.4,N
1500360075.2,286048237.6,N
1500360095.1,286048235.1,N
1500360096.0,286048235.1,N
1500360115.8,286048237.0,N
1500360135.7,286048237.4,N
1500360155.5,286048239.5,N
1500360175.3,286048237.3,N
1500360195.2,286048236.9,N
1500360215.9,286048239.6,N
1500360235.7,286048237.2,N
1500360255.6,286048237.7,N
1500360275.4,286048239.6,N
1500360295.3,286048238.9,N
1500360315.1,286048236.8,N
1500360316.0,286048236.8,N
1500360335.8,286048236.7,N
1500360355.7,286048237.0,N
1500360375.5,286048237.3,N
1500360395.4,286048237.1,N
1500360415.2,286048239.2,N
1500360435.0,286048239.2,N
1500360435.9,286048239.2,N
1500360455.8,286048239.5,N
1500360475.6,286048239.0,N
1500360495.4,286048239.6,N
1500360515.3,286048239.3,N
1500360535.1,286048238.9,N
1500360555.9,286048238.6,N
1500360575.7,286048238.7,N
1500360595.5,286048238.3,N
1500360615.4,286048239.6,N
1500360635.2,286048239.4,N
1500360655.0,286048239.2,N
1500360655.9,286048239.2,N
1500360675.8,286048239.1,N
1500360695.6,286048236.5,N
1500360715.5,286048236.5,N
1500360735.3,286048237.1,N
1500360755.1,286048236.8,N
1500360775.9,286048236.6,N
1500360795.7,286048239.6,N
1500360815.6,286048239.3,N
1500360835.4,286048238.5,N
1500360855.2,286048240.9,N
1500360875.1,286048240.6,N
1500360876.0,286048240.6,N
1500360895.8,286048242.4,N
1500360915.6,286048241.6,N
1500360935.5,286048244.4,N
1500360955.3,286048243.4,N
1500360975.2,286048243.3,N
1500360995.9,286048241.3,N
1500361015.7,286048241.8,N
1500361035.6,286048241.8,N
1500361055.4,286048242.4,N
1500361075.2,286048242.7,N
1500361095.1,286048240.2,N
1500361096.0,286048240.2,N
1500361115.8,286048240.6,N
1500361135.7,286048240.8,N
1500361155.5,286048240.9,N
1500361175.3,286048241.0,N
1500361195.2,286048241.2,N
